Regional Weather Roundup
Issued by NWS Newport/Morehead, NC

Current Version | Previous Version | Text Only | Print | Product List | Glossary On
Versions: 1 2 3 4 5 6 7 8 9 10 11 12 13 14 15 16 17 18 19 20 21 22 23 24 25 26 27 28 29 30 31 32 33 34 35 36 37 38 39 40 41 42 43 44 45 46 47 48 49 50
000
ASUS42 KMHX 260325
RWRMHX
WEATHER ROUNDUP FOR EASTERN NORTH CAROLINA
NATIONAL WEATHER SERVICE NEWPORT/MOREHEAD CITY NC
1100 PM EDT THU MAY 25 2017

NOTE: "FAIR" INDICATES FEW OR NO CLOUDS BELOW 12,000 FEET
WITH NO SIGNIFICANT WEATHER AND/OR OBSTRUCTIONS TO VISIBILITY

NCZ015>017-031-032-045>047-102-103-260400-
NORTH COAST

CITY           SKY/WX    TMP DP  RH WIND       PRES   REMARKS
EDENTON        CLOUDY    70  59  68 SW13      29.69R
ELIZABETH CITY CLOUDY    65  58  78 SW10      29.66R
KITTY HAWK     LGT RAIN  67  59  77 SW9G25    29.67R
MANTEO         LGT RAIN  65  61  84 W15G23    29.70R

$$

NCZ045>047-081-094-103-104-260400-
CENTRAL COAST

CITY           SKY/WX    TMP DP  RH WIND       PRES   REMARKS
FRISCO         CLEAR     72  58  61 W21G32    29.72R

$$

NCZ095-097-098-100-101-260400-
SOUTHERN COAST

CITY           SKY/WX    TMP DP  RH WIND       PRES   REMARKS
BEAUFORT       CLEAR     72  59  63 W20G30    29.76R
CEDAR ISLAND   NOT AVBL
JACKSONVILLE   CLEAR     66  57  72 SW10      29.76R
PINEY ISLAND   CLEAR    N/A N/A N/A SW17G26   29.74R
WILMINGTON     CLEAR     66  56  70 SW9       29.80R


$$

NCZ011>013-027>030-043-044-078>080-089-090>093-098-260400-
COASTAL PLAIN

CITY           SKY/WX    TMP DP  RH WIND       PRES   REMARKS
AHOSKIE          N/A     61  59  94 CALM      29.67R
CLINTON        CLEAR     65  56  71 SW3       29.77R
ELIZABETHTOWN  CLEAR     66  54  65 SW6       29.79R
GOLDSBORO      CLEAR     67  58  71 SW10      29.72R
GREENVILLE     CLOUDY    68  55  64 SW9       29.74R
HAVELOCK       CLEAR     68  55  63 SW16      29.76R
KENANSVILLE    CLEAR     64  55  72 SW3       29.76R
KINSTON        PTCLDY    66  56  69 CALM      29.74R
NEW BERN       CLEAR     66  57  72 SW10      29.75R
RICHLANDS      CLEAR     64  57  78 SW13      29.77R
ROCKY MOUNT    MOCLDY    66  56  70 SW10      29.70R
WASHINGTON     CLOUDY    66  57  72 SW8       29.71R
WHITEVILLE     CLEAR     67  53  60 SW8       29.81R

$$

AMZ130-135-150-152-154-156-158-170-250-252-270-ANZ085-086-088-633-658-670-260400-
MARINE OBSERVATIONS

STATION/POSITION TIME  TEMP    WIND        PRES    WAVE   SWELL
                       AIR SEA DIR/SP/G            HT/PER HT/PER
                 (UTC) (F)     (DEG/KT/KT) (MB)    (FT/S) (FT/S)
CHESAPEAKE LIGHT NOT AVBL
64 E VA BEACH    0250   65 63  240/ 17/ 21 1003.4    8/ 8   5/ 8
DUCK             0254   69 62  230/ 17/ 20 1004.1
2 E DUCK         0300      63                N/A     2/ 7
OREGON INLET     0248   71 71  220/ 23/ 27 1004.8
13E OREGON INLT  0248      65                N/A     6/ 8   5/ 8
HATTERAS CG      0254   71 74  240/ 16/ 25 1006.2
DIAMOND BUOY     0250   74 78  250/ 27/ 33 1006.0   10/ 8
CAPE LOOKOUT     0300   72     250/ 22/ 28 1007.5
BEAUFORT LAB     0254   72 71  250/  8/ 18 1007.0
30 SE NEW RVR IN 0208   73 75  270/ 25/ 33 1007.2
30 SE NEW RVR IN 0243      75                N/A    10/ 9   2/11
27 SE WRIGHTSVLE 0208   74 75  240/ 23/ 31 1007.4
5 SE WRIGHTSVLE  0208   72 74  240/ 19/ 25 1007.6
225 S CAPE HAT   0250   76 77  250/ 23/ 29 1011.6   10/ 8
41 SE CHARLESTON 0300   74 75  260/ 17/ 23 1011.5

$$



USA.gov is the U.S. government's official web portal to all federal, state and local government web resources and services.